Index of /20260430/WXO-DD/model_gdps/15km/12/045
Name Last modified Size Description
Parent Directory -
20260430T12Z_MSC_GDPS_AbsoluteVorticity_IsbL-0200_LatLon0.15_PT045H.grib2 2026-04-30 16:04 1.5M
20260430T12Z_MSC_GDPS_AbsoluteVorticity_IsbL-0250_LatLon0.15_PT045H.grib2 2026-04-30 16:04 1.3M
20260430T12Z_MSC_GDPS_AbsoluteVorticity_IsbL-0500_LatLon0.15_PT045H.grib2 2026-04-30 16:04 1.4M
20260430T12Z_MSC_GDPS_AbsoluteVorticity_IsbL-0700_LatLon0.15_PT045H.grib2 2026-04-30 16:04 1.3M
20260430T12Z_MSC_GDPS_AbsoluteVorticity_IsbL-0850_LatLon0.15_PT045H.grib2 2026-04-30 16:04 1.6M
20260430T12Z_MSC_GDPS_AirTemp_AGL-120m_LatLon0.15_PT045H.grib2 2026-04-30 16:04 908K
20260430T12Z_MSC_GDPS_AirTemp_AGL-2m_LatLon0.15_PT045H.grib2 2026-04-30 16:04 1.0M
20260430T12Z_MSC_GDPS_AirTemp_AGL-40m_LatLon0.15_PT045H.grib2 2026-04-30 16:04 810K
20260430T12Z_MSC_GDPS_AirTemp_AGL-80m_LatLon0.15_PT045H.grib2 2026-04-30 16:04 799K
20260430T12Z_MSC_GDPS_AirTemp_IsbL-0001_LatLon0.15_PT045H.grib2 2026-04-30 16:04 653K
20260430T12Z_MSC_GDPS_AirTemp_IsbL-0005_LatLon0.15_PT045H.grib2 2026-04-30 16:04 676K
20260430T12Z_MSC_GDPS_AirTemp_IsbL-0010_LatLon0.15_PT045H.grib2 2026-04-30 16:04 758K
20260430T12Z_MSC_GDPS_AirTemp_IsbL-0020_LatLon0.15_PT045H.grib2 2026-04-30 16:04 783K
20260430T12Z_MSC_GDPS_AirTemp_IsbL-0030_LatLon0.15_PT045H.grib2 2026-04-30 16:04 830K
20260430T12Z_MSC_GDPS_AirTemp_IsbL-0050_LatLon0.15_PT045H.grib2 2026-04-30 16:04 804K
20260430T12Z_MSC_GDPS_AirTemp_IsbL-0100_LatLon0.15_PT045H.grib2 2026-04-30 16:04 958K
20260430T12Z_MSC_GDPS_AirTemp_IsbL-0150_LatLon0.15_PT045H.grib2 2026-04-30 16:04 970K
20260430T12Z_MSC_GDPS_AirTemp_IsbL-0175_LatLon0.15_PT045H.grib2 2026-04-30 16:04 957K
20260430T12Z_MSC_GDPS_AirTemp_IsbL-0200_LatLon0.15_PT045H.grib2 2026-04-30 16:04 968K
20260430T12Z_MSC_GDPS_AirTemp_IsbL-0225_LatLon0.15_PT045H.grib2 2026-04-30 16:04 1.0M
20260430T12Z_MSC_GDPS_AirTemp_IsbL-0250_LatLon0.15_PT045H.grib2 2026-04-30 16:04 1.0M
20260430T12Z_MSC_GDPS_AirTemp_IsbL-0275_LatLon0.15_PT045H.grib2 2026-04-30 16:04 1.0M
20260430T12Z_MSC_GDPS_AirTemp_IsbL-0300_LatLon0.15_PT045H.grib2 2026-04-30 16:04 1.0M
20260430T12Z_MSC_GDPS_AirTemp_IsbL-0350_LatLon0.15_PT045H.grib2 2026-04-30 16:04 925K
20260430T12Z_MSC_GDPS_AirTemp_IsbL-0400_LatLon0.15_PT045H.grib2 2026-04-30 16:04 936K
20260430T12Z_MSC_GDPS_AirTemp_IsbL-0450_LatLon0.15_PT045H.grib2 2026-04-30 16:04 954K
20260430T12Z_MSC_GDPS_AirTemp_IsbL-0500_LatLon0.15_PT045H.grib2 2026-04-30 16:04 759K
20260430T12Z_MSC_GDPS_AirTemp_IsbL-0550_LatLon0.15_PT045H.grib2 2026-04-30 16:04 794K
20260430T12Z_MSC_GDPS_AirTemp_IsbL-0600_LatLon0.15_PT045H.grib2 2026-04-30 16:04 887K
20260430T12Z_MSC_GDPS_AirTemp_IsbL-0650_LatLon0.15_PT045H.grib2 2026-04-30 16:04 917K
20260430T12Z_MSC_GDPS_AirTemp_IsbL-0700_LatLon0.15_PT045H.grib2 2026-04-30 16:04 954K
20260430T12Z_MSC_GDPS_AirTemp_IsbL-0750_LatLon0.15_PT045H.grib2 2026-04-30 16:04 1.0M
20260430T12Z_MSC_GDPS_AirTemp_IsbL-0800_LatLon0.15_PT045H.grib2 2026-04-30 16:04 1.1M
20260430T12Z_MSC_GDPS_AirTemp_IsbL-0850_LatLon0.15_PT045H.grib2 2026-04-30 16:04 1.1M
20260430T12Z_MSC_GDPS_AirTemp_IsbL-0875_LatLon0.15_PT045H.grib2 2026-04-30 16:04 1.2M
20260430T12Z_MSC_GDPS_AirTemp_IsbL-0900_LatLon0.15_PT045H.grib2 2026-04-30 16:04 1.1M
20260430T12Z_MSC_GDPS_AirTemp_IsbL-0925_LatLon0.15_PT045H.grib2 2026-04-30 16:04 1.1M
20260430T12Z_MSC_GDPS_AirTemp_IsbL-0950_LatLon0.15_PT045H.grib2 2026-04-30 16:04 1.2M
20260430T12Z_MSC_GDPS_AirTemp_IsbL-0970_LatLon0.15_PT045H.grib2 2026-04-30 16:04 1.2M
20260430T12Z_MSC_GDPS_AirTemp_IsbL-0985_LatLon0.15_PT045H.grib2 2026-04-30 16:04 1.1M
20260430T12Z_MSC_GDPS_AirTemp_IsbL-1000_LatLon0.15_PT045H.grib2 2026-04-30 16:04 1.1M
20260430T12Z_MSC_GDPS_AirTemp_IsbL-1015_LatLon0.15_PT045H.grib2 2026-04-30 16:04 1.1M
20260430T12Z_MSC_GDPS_Albedo_Sfc_LatLon0.15_PT045H.grib2 2026-04-30 16:04 241K
20260430T12Z_MSC_GDPS_CAPE_Sfc_LatLon0.15_PT045H.grib2 2026-04-30 16:04 3.9M
20260430T12Z_MSC_GDPS_CIN_Sfc_LatLon0.15_PT045H.grib2 2026-04-30 16:04 3.0M
20260430T12Z_MSC_GDPS_CloudWater_EAtm_LatLon0.15_PT045H.grib2 2026-04-30 16:04 532K
20260430T12Z_MSC_GDPS_ConvectivePrecip-Accum_Sfc_LatLon0.15_PT045H.grib2 2026-04-30 16:04 2.9M
20260430T12Z_MSC_GDPS_DewPointDepression_AGL-2m_LatLon0.15_PT045H.grib2 2026-04-30 16:04 768K
20260430T12Z_MSC_GDPS_DewPointDepression_IsbL-0010_LatLon0.15_PT045H.grib2 2026-04-30 16:04 60K
20260430T12Z_MSC_GDPS_DewPointDepression_IsbL-0020_LatLon0.15_PT045H.grib2 2026-04-30 16:04 64K
20260430T12Z_MSC_GDPS_DewPointDepression_IsbL-0030_LatLon0.15_PT045H.grib2 2026-04-30 16:04 72K
20260430T12Z_MSC_GDPS_DewPointDepression_IsbL-0050_LatLon0.15_PT045H.grib2 2026-04-30 16:04 375K
20260430T12Z_MSC_GDPS_DewPointDepression_IsbL-0100_LatLon0.15_PT045H.grib2 2026-04-30 16:04 412K
20260430T12Z_MSC_GDPS_DewPointDepression_IsbL-0150_LatLon0.15_PT045H.grib2 2026-04-30 16:04 467K
20260430T12Z_MSC_GDPS_DewPointDepression_IsbL-0175_LatLon0.15_PT045H.grib2 2026-04-30 16:04 572K
20260430T12Z_MSC_GDPS_DewPointDepression_IsbL-0200_LatLon0.15_PT045H.grib2 2026-04-30 16:04 683K
20260430T12Z_MSC_GDPS_DewPointDepression_IsbL-0225_LatLon0.15_PT045H.grib2 2026-04-30 16:04 781K
20260430T12Z_MSC_GDPS_DewPointDepression_IsbL-0250_LatLon0.15_PT045H.grib2 2026-04-30 16:04 862K
20260430T12Z_MSC_GDPS_DewPointDepression_IsbL-0275_LatLon0.15_PT045H.grib2 2026-04-30 16:04 881K
20260430T12Z_MSC_GDPS_DewPointDepression_IsbL-0300_LatLon0.15_PT045H.grib2 2026-04-30 16:04 919K
20260430T12Z_MSC_GDPS_DewPointDepression_IsbL-0350_LatLon0.15_PT045H.grib2 2026-04-30 16:04 947K
20260430T12Z_MSC_GDPS_DewPointDepression_IsbL-0400_LatLon0.15_PT045H.grib2 2026-04-30 16:04 1.0M
20260430T12Z_MSC_GDPS_DewPointDepression_IsbL-0450_LatLon0.15_PT045H.grib2 2026-04-30 16:04 1.0M
20260430T12Z_MSC_GDPS_DewPointDepression_IsbL-0500_LatLon0.15_PT045H.grib2 2026-04-30 16:04 1.0M
20260430T12Z_MSC_GDPS_DewPointDepression_IsbL-0550_LatLon0.15_PT045H.grib2 2026-04-30 16:04 1.0M
20260430T12Z_MSC_GDPS_DewPointDepression_IsbL-0600_LatLon0.15_PT045H.grib2 2026-04-30 16:04 1.0M
20260430T12Z_MSC_GDPS_DewPointDepression_IsbL-0650_LatLon0.15_PT045H.grib2 2026-04-30 16:04 1.1M
20260430T12Z_MSC_GDPS_DewPointDepression_IsbL-0700_LatLon0.15_PT045H.grib2 2026-04-30 16:04 1.1M
20260430T12Z_MSC_GDPS_DewPointDepression_IsbL-0750_LatLon0.15_PT045H.grib2 2026-04-30 16:04 1.1M
20260430T12Z_MSC_GDPS_DewPointDepression_IsbL-0800_LatLon0.15_PT045H.grib2 2026-04-30 16:04 1.2M
20260430T12Z_MSC_GDPS_DewPointDepression_IsbL-0850_LatLon0.15_PT045H.grib2 2026-04-30 16:04 1.2M
20260430T12Z_MSC_GDPS_DewPointDepression_IsbL-0875_LatLon0.15_PT045H.grib2 2026-04-30 16:04 1.1M
20260430T12Z_MSC_GDPS_DewPointDepression_IsbL-0900_LatLon0.15_PT045H.grib2 2026-04-30 16:04 1.1M
20260430T12Z_MSC_GDPS_DewPointDepression_IsbL-0925_LatLon0.15_PT045H.grib2 2026-04-30 16:04 1.0M
20260430T12Z_MSC_GDPS_DewPointDepression_IsbL-0950_LatLon0.15_PT045H.grib2 2026-04-30 16:04 1.0M
20260430T12Z_MSC_GDPS_DewPointDepression_IsbL-0970_LatLon0.15_PT045H.grib2 2026-04-30 16:04 1.0M
20260430T12Z_MSC_GDPS_DewPointDepression_IsbL-0985_LatLon0.15_PT045H.grib2 2026-04-30 16:04 1.0M
20260430T12Z_MSC_GDPS_DewPointDepression_IsbL-1000_LatLon0.15_PT045H.grib2 2026-04-30 16:04 1.0M
20260430T12Z_MSC_GDPS_DewPointDepression_IsbL-1015_LatLon0.15_PT045H.grib2 2026-04-30 16:04 916K
20260430T12Z_MSC_GDPS_DewPoint_AGL-2m_LatLon0.15_PT045H.grib2 2026-04-30 16:04 612K
20260430T12Z_MSC_GDPS_DownwardLongwaveRadiationFlux-Accum_Sfc_LatLon0.15_PT045H.grib2 2026-04-30 16:04 773K
20260430T12Z_MSC_GDPS_DownwardShortwaveRadiationFlux-Accum_NTAtm_LatLon0.15_PT045H.grib2 2026-04-30 16:04 264K
20260430T12Z_MSC_GDPS_DownwardShortwaveRadiationFlux-Accum_Sfc_LatLon0.15_PT045H.grib2 2026-04-30 16:04 1.0M
20260430T12Z_MSC_GDPS_FreezingRain-Accum1h_Sfc_LatLon0.15_PT045H.grib2 2026-04-30 16:04 44K
20260430T12Z_MSC_GDPS_FreezingRain-Accum3h_Sfc_LatLon0.15_PT045H.grib2 2026-04-30 16:04 52K
20260430T12Z_MSC_GDPS_FreezingRain-Accum_Sfc_LatLon0.15_PT045H.grib2 2026-04-30 16:04 266K
20260430T12Z_MSC_GDPS_GeopotentialHeight_IsbL-0001_LatLon0.15_PT045H.grib2 2026-04-30 16:04 372K
20260430T12Z_MSC_GDPS_GeopotentialHeight_IsbL-0005_LatLon0.15_PT045H.grib2 2026-04-30 16:04 478K
20260430T12Z_MSC_GDPS_GeopotentialHeight_IsbL-0010_LatLon0.15_PT045H.grib2 2026-04-30 16:04 473K
20260430T12Z_MSC_GDPS_GeopotentialHeight_IsbL-0020_LatLon0.15_PT045H.grib2 2026-04-30 16:04 414K
20260430T12Z_MSC_GDPS_GeopotentialHeight_IsbL-0030_LatLon0.15_PT045H.grib2 2026-04-30 16:04 569K
20260430T12Z_MSC_GDPS_GeopotentialHeight_IsbL-0050_LatLon0.15_PT045H.grib2 2026-04-30 16:04 572K
20260430T12Z_MSC_GDPS_GeopotentialHeight_IsbL-0100_LatLon0.15_PT045H.grib2 2026-04-30 16:04 611K
20260430T12Z_MSC_GDPS_GeopotentialHeight_IsbL-0150_LatLon0.15_PT045H.grib2 2026-04-30 16:04 630K
20260430T12Z_MSC_GDPS_GeopotentialHeight_IsbL-0175_LatLon0.15_PT045H.grib2 2026-04-30 16:04 634K
20260430T12Z_MSC_GDPS_GeopotentialHeight_IsbL-0200_LatLon0.15_PT045H.grib2 2026-04-30 16:04 638K
20260430T12Z_MSC_GDPS_GeopotentialHeight_IsbL-0225_LatLon0.15_PT045H.grib2 2026-04-30 16:04 635K
20260430T12Z_MSC_GDPS_GeopotentialHeight_IsbL-0250_LatLon0.15_PT045H.grib2 2026-04-30 16:04 643K
20260430T12Z_MSC_GDPS_GeopotentialHeight_IsbL-0275_LatLon0.15_PT045H.grib2 2026-04-30 16:04 641K
20260430T12Z_MSC_GDPS_GeopotentialHeight_IsbL-0300_LatLon0.15_PT045H.grib2 2026-04-30 16:04 634K
20260430T12Z_MSC_GDPS_GeopotentialHeight_IsbL-0350_LatLon0.15_PT045H.grib2 2026-04-30 16:04 630K
20260430T12Z_MSC_GDPS_GeopotentialHeight_IsbL-0400_LatLon0.15_PT045H.grib2 2026-04-30 16:04 620K
20260430T12Z_MSC_GDPS_GeopotentialHeight_IsbL-0450_LatLon0.15_PT045H.grib2 2026-04-30 16:04 610K
20260430T12Z_MSC_GDPS_GeopotentialHeight_IsbL-0500_LatLon0.15_PT045H.grib2 2026-04-30 16:04 530K
20260430T12Z_MSC_GDPS_GeopotentialHeight_IsbL-0550_LatLon0.15_PT045H.grib2 2026-04-30 16:04 523K
20260430T12Z_MSC_GDPS_GeopotentialHeight_IsbL-0600_LatLon0.15_PT045H.grib2 2026-04-30 16:04 520K
20260430T12Z_MSC_GDPS_GeopotentialHeight_IsbL-0650_LatLon0.15_PT045H.grib2 2026-04-30 16:04 688K
20260430T12Z_MSC_GDPS_GeopotentialHeight_IsbL-0700_LatLon0.15_PT045H.grib2 2026-04-30 16:04 690K
20260430T12Z_MSC_GDPS_GeopotentialHeight_IsbL-0750_LatLon0.15_PT045H.grib2 2026-04-30 16:04 692K
20260430T12Z_MSC_GDPS_GeopotentialHeight_IsbL-0800_LatLon0.15_PT045H.grib2 2026-04-30 16:04 702K
20260430T12Z_MSC_GDPS_GeopotentialHeight_IsbL-0850_LatLon0.15_PT045H.grib2 2026-04-30 16:04 718K
20260430T12Z_MSC_GDPS_GeopotentialHeight_IsbL-0875_LatLon0.15_PT045H.grib2 2026-04-30 16:04 717K
20260430T12Z_MSC_GDPS_GeopotentialHeight_IsbL-0900_LatLon0.15_PT045H.grib2 2026-04-30 16:04 728K
20260430T12Z_MSC_GDPS_GeopotentialHeight_IsbL-0925_LatLon0.15_PT045H.grib2 2026-04-30 16:04 737K
20260430T12Z_MSC_GDPS_GeopotentialHeight_IsbL-0950_LatLon0.15_PT045H.grib2 2026-04-30 16:04 744K
20260430T12Z_MSC_GDPS_GeopotentialHeight_IsbL-0970_LatLon0.15_PT045H.grib2 2026-04-30 16:04 756K
20260430T12Z_MSC_GDPS_GeopotentialHeight_IsbL-0985_LatLon0.15_PT045H.grib2 2026-04-30 16:04 772K
20260430T12Z_MSC_GDPS_GeopotentialHeight_IsbL-1000_LatLon0.15_PT045H.grib2 2026-04-30 16:04 794K
20260430T12Z_MSC_GDPS_GeopotentialHeight_IsbL-1015_LatLon0.15_PT045H.grib2 2026-04-30 16:04 817K
20260430T12Z_MSC_GDPS_Humidex_Sfc_LatLon0.15_PT045H.grib2 2026-04-30 16:04 5.3M
20260430T12Z_MSC_GDPS_IcePellets-Accum1h_Sfc_LatLon0.15_PT045H.grib2 2026-04-30 16:04 7.1K
20260430T12Z_MSC_GDPS_IcePellets-Accum3h_Sfc_LatLon0.15_PT045H.grib2 2026-04-30 16:04 9.0K
20260430T12Z_MSC_GDPS_IcePellets-Accum_Sfc_LatLon0.15_PT045H.grib2 2026-04-30 16:04 57K
20260430T12Z_MSC_GDPS_KIndex_Sfc_LatLon0.15_PT045H.grib2 2026-04-30 16:04 6.4M
20260430T12Z_MSC_GDPS_LatentHeatNetFlux_Sfc_LatLon0.15_PT045H.grib2 2026-04-30 16:04 560K
20260430T12Z_MSC_GDPS_LiftedIndex-MU-VT_IsbL-0500_LatLon0.15_PT045H.grib2 2026-04-30 16:04 5.4M
20260430T12Z_MSC_GDPS_NetLongwaveRadiationFlux-Accum_Sfc_LatLon0.15_PT045H.grib2 2026-04-30 16:04 1.1M
20260430T12Z_MSC_GDPS_NetShortwaveRadiationFlux-Accum_Sfc_LatLon0.15_PT045H.grib2 2026-04-30 16:04 1.0M
20260430T12Z_MSC_GDPS_O3MixingRatio_Sfc_LatLon0.15_PT045H.grib2 2026-04-30 16:44 2.0M
20260430T12Z_MSC_GDPS_O3_EAtm_LatLon0.15_PT045H.grib2 2026-04-30 16:44 2.5M
20260430T12Z_MSC_GDPS_PlanetaryBoundaryLayerHeight_Sfc_LatLon0.15_PT045H.grib2 2026-04-30 16:04 2.5M
20260430T12Z_MSC_GDPS_Precip-Accum1h_Sfc_LatLon0.15_PT045H.grib2 2026-04-30 16:04 3.2M
20260430T12Z_MSC_GDPS_Precip-Accum3h_Sfc_LatLon0.15_PT045H.grib2 2026-04-30 16:04 3.5M
20260430T12Z_MSC_GDPS_Precip-Accum_Sfc_LatLon0.15_PT045H.grib2 2026-04-30 16:04 4.8M
20260430T12Z_MSC_GDPS_PrecipRate_Sfc_LatLon0.15_PT045H.grib2 2026-04-30 16:04 3.1M
20260430T12Z_MSC_GDPS_PrecipType-Instant_Sfc_LatLon0.15_PT045H.grib2 2026-04-30 16:04 1.6M
20260430T12Z_MSC_GDPS_Pressure_MSL_LatLon0.15_PT045H.grib2 2026-04-30 16:04 836K
20260430T12Z_MSC_GDPS_Pressure_PVU-1.5_LatLon0.15_PT045H.grib2 2026-04-30 16:04 5.8M
20260430T12Z_MSC_GDPS_Pressure_PVU-1_LatLon0.15_PT045H.grib2 2026-04-30 16:04 6.0M
20260430T12Z_MSC_GDPS_Pressure_PVU-2_LatLon0.15_PT045H.grib2 2026-04-30 16:04 5.6M
20260430T12Z_MSC_GDPS_Pressure_Sfc_LatLon0.15_PT045H.grib2 2026-04-30 16:04 1.1M
20260430T12Z_MSC_GDPS_RadiativeTemp_Sfc_LatLon0.15_PT045H.grib2 2026-04-30 16:04 503K
20260430T12Z_MSC_GDPS_Rain-Accum1h_Sfc_LatLon0.15_PT045H.grib2 2026-04-30 16:04 1.7M
20260430T12Z_MSC_GDPS_Rain-Accum3h_Sfc_LatLon0.15_PT045H.grib2 2026-04-30 16:04 1.8M
20260430T12Z_MSC_GDPS_Rain-Accum_Sfc_LatLon0.15_PT045H.grib2 2026-04-30 16:04 3.6M
20260430T12Z_MSC_GDPS_RelativeHumidity_AGL-2m_LatLon0.15_PT045H.grib2 2026-04-30 16:04 1.0M
20260430T12Z_MSC_GDPS_RelativeHumidity_IsbL-0010_LatLon0.15_PT045H.grib2 2026-04-30 16:04 201K
20260430T12Z_MSC_GDPS_RelativeHumidity_IsbL-0020_LatLon0.15_PT045H.grib2 2026-04-30 16:04 170K
20260430T12Z_MSC_GDPS_RelativeHumidity_IsbL-0030_LatLon0.15_PT045H.grib2 2026-04-30 16:04 268K
20260430T12Z_MSC_GDPS_RelativeHumidity_IsbL-0050_LatLon0.15_PT045H.grib2 2026-04-30 16:04 512K
20260430T12Z_MSC_GDPS_RelativeHumidity_IsbL-0100_LatLon0.15_PT045H.grib2 2026-04-30 16:04 511K
20260430T12Z_MSC_GDPS_RelativeHumidity_IsbL-0150_LatLon0.15_PT045H.grib2 2026-04-30 16:04 664K
20260430T12Z_MSC_GDPS_RelativeHumidity_IsbL-0175_LatLon0.15_PT045H.grib2 2026-04-30 16:04 775K
20260430T12Z_MSC_GDPS_RelativeHumidity_IsbL-0200_LatLon0.15_PT045H.grib2 2026-04-30 16:04 698K
20260430T12Z_MSC_GDPS_RelativeHumidity_IsbL-0225_LatLon0.15_PT045H.grib2 2026-04-30 16:04 787K
20260430T12Z_MSC_GDPS_RelativeHumidity_IsbL-0250_LatLon0.15_PT045H.grib2 2026-04-30 16:04 864K
20260430T12Z_MSC_GDPS_RelativeHumidity_IsbL-0275_LatLon0.15_PT045H.grib2 2026-04-30 16:04 884K
20260430T12Z_MSC_GDPS_RelativeHumidity_IsbL-0300_LatLon0.15_PT045H.grib2 2026-04-30 16:04 926K
20260430T12Z_MSC_GDPS_RelativeHumidity_IsbL-0350_LatLon0.15_PT045H.grib2 2026-04-30 16:04 946K
20260430T12Z_MSC_GDPS_RelativeHumidity_IsbL-0400_LatLon0.15_PT045H.grib2 2026-04-30 16:04 968K
20260430T12Z_MSC_GDPS_RelativeHumidity_IsbL-0450_LatLon0.15_PT045H.grib2 2026-04-30 16:04 1.0M
20260430T12Z_MSC_GDPS_RelativeHumidity_IsbL-0500_LatLon0.15_PT045H.grib2 2026-04-30 16:04 1.0M
20260430T12Z_MSC_GDPS_RelativeHumidity_IsbL-0550_LatLon0.15_PT045H.grib2 2026-04-30 16:04 1.1M
20260430T12Z_MSC_GDPS_RelativeHumidity_IsbL-0600_LatLon0.15_PT045H.grib2 2026-04-30 16:04 1.1M
20260430T12Z_MSC_GDPS_RelativeHumidity_IsbL-0650_LatLon0.15_PT045H.grib2 2026-04-30 16:04 1.1M
20260430T12Z_MSC_GDPS_RelativeHumidity_IsbL-0700_LatLon0.15_PT045H.grib2 2026-04-30 16:04 1.1M
20260430T12Z_MSC_GDPS_RelativeHumidity_IsbL-0750_LatLon0.15_PT045H.grib2 2026-04-30 16:04 1.2M
20260430T12Z_MSC_GDPS_RelativeHumidity_IsbL-0800_LatLon0.15_PT045H.grib2 2026-04-30 16:04 1.3M
20260430T12Z_MSC_GDPS_RelativeHumidity_IsbL-0850_LatLon0.15_PT045H.grib2 2026-04-30 16:04 1.3M
20260430T12Z_MSC_GDPS_RelativeHumidity_IsbL-0875_LatLon0.15_PT045H.grib2 2026-04-30 16:04 1.3M
20260430T12Z_MSC_GDPS_RelativeHumidity_IsbL-0900_LatLon0.15_PT045H.grib2 2026-04-30 16:04 1.2M
20260430T12Z_MSC_GDPS_RelativeHumidity_IsbL-0925_LatLon0.15_PT045H.grib2 2026-04-30 16:04 1.2M
20260430T12Z_MSC_GDPS_RelativeHumidity_IsbL-0950_LatLon0.15_PT045H.grib2 2026-04-30 16:04 1.2M
20260430T12Z_MSC_GDPS_RelativeHumidity_IsbL-0970_LatLon0.15_PT045H.grib2 2026-04-30 16:04 1.2M
20260430T12Z_MSC_GDPS_RelativeHumidity_IsbL-0985_LatLon0.15_PT045H.grib2 2026-04-30 16:04 1.2M
20260430T12Z_MSC_GDPS_RelativeHumidity_IsbL-1000_LatLon0.15_PT045H.grib2 2026-04-30 16:04 1.1M
20260430T12Z_MSC_GDPS_RelativeHumidity_IsbL-1015_LatLon0.15_PT045H.grib2 2026-04-30 16:04 1.0M
20260430T12Z_MSC_GDPS_RelativeVorticity_IsbL-0200_LatLon0.15_PT045H.grib2 2026-04-30 16:04 1.5M
20260430T12Z_MSC_GDPS_RelativeVorticity_IsbL-0250_LatLon0.15_PT045H.grib2 2026-04-30 16:04 1.6M
20260430T12Z_MSC_GDPS_RelativeVorticity_IsbL-0500_LatLon0.15_PT045H.grib2 2026-04-30 16:04 1.4M
20260430T12Z_MSC_GDPS_RelativeVorticity_IsbL-0700_LatLon0.15_PT045H.grib2 2026-04-30 16:04 1.3M
20260430T12Z_MSC_GDPS_RelativeVorticity_IsbL-0850_LatLon0.15_PT045H.grib2 2026-04-30 16:04 1.6M
20260430T12Z_MSC_GDPS_Runoff-Accum_Sfc_LatLon0.15_PT045H.grib2 2026-04-30 16:04 120K
20260430T12Z_MSC_GDPS_SensibleHeatNetFlux_Sfc_LatLon0.15_PT045H.grib2 2026-04-30 16:04 668K
20260430T12Z_MSC_GDPS_ShowalterIndex_IsbL-0500_LatLon0.15_PT045H.grib2 2026-04-30 16:04 6.2M
20260430T12Z_MSC_GDPS_Snow-Accum1h_Sfc_LatLon0.15_PT045H.grib2 2026-04-30 16:04 869K
20260430T12Z_MSC_GDPS_Snow-Accum3h_Sfc_LatLon0.15_PT045H.grib2 2026-04-30 16:04 902K
20260430T12Z_MSC_GDPS_Snow-Accum_Sfc_LatLon0.15_PT045H.grib2 2026-04-30 16:04 1.7M
20260430T12Z_MSC_GDPS_SnowDensity_Sfc_LatLon0.15_PT045H.grib2 2026-04-30 16:04 261K
20260430T12Z_MSC_GDPS_SnowDepth_Sfc_LatLon0.15_PT045H.grib2 2026-04-30 16:04 1.7M
20260430T12Z_MSC_GDPS_SoilTemp_DBS-0to10cm_LatLon0.15_PT045H.grib2 2026-04-30 16:04 503K
20260430T12Z_MSC_GDPS_SoilTemp_Sfc_LatLon0.15_PT045H.grib2 2026-04-30 16:04 580K
20260430T12Z_MSC_GDPS_SoilVolumetricIceContent_Sfc_LatLon0.15_PT045H.grib2 2026-04-30 16:04 202K
20260430T12Z_MSC_GDPS_SoilVolumetricWaterContent_DBS-0to10cm_LatLon0.15_PT045H.grib2 2026-04-30 16:04 587K
20260430T12Z_MSC_GDPS_SoilVolumetricWaterContent_DBS-0to1cm_LatLon0.15_PT045H.grib2 2026-04-30 16:04 651K
20260430T12Z_MSC_GDPS_SpecificHumidity_AGL-120m_LatLon0.15_PT045H.grib2 2026-04-30 16:04 1.1M
20260430T12Z_MSC_GDPS_SpecificHumidity_AGL-2m_LatLon0.15_PT045H.grib2 2026-04-30 16:04 1.2M
20260430T12Z_MSC_GDPS_SpecificHumidity_AGL-40m_LatLon0.15_PT045H.grib2 2026-04-30 16:04 1.1M
20260430T12Z_MSC_GDPS_SpecificHumidity_AGL-80m_LatLon0.15_PT045H.grib2 2026-04-30 16:04 1.1M
20260430T12Z_MSC_GDPS_SpecificHumidity_IsbL-0001_LatLon0.15_PT045H.grib2 2026-04-30 16:04 1.3M
20260430T12Z_MSC_GDPS_SpecificHumidity_IsbL-0005_LatLon0.15_PT045H.grib2 2026-04-30 16:04 1.2M
20260430T12Z_MSC_GDPS_SpecificHumidity_IsbL-0010_LatLon0.15_PT045H.grib2 2026-04-30 16:04 1.3M
20260430T12Z_MSC_GDPS_SpecificHumidity_IsbL-0020_LatLon0.15_PT045H.grib2 2026-04-30 16:04 1.4M
20260430T12Z_MSC_GDPS_SpecificHumidity_IsbL-0030_LatLon0.15_PT045H.grib2 2026-04-30 16:04 1.3M
20260430T12Z_MSC_GDPS_SpecificHumidity_IsbL-0050_LatLon0.15_PT045H.grib2 2026-04-30 16:04 1.7M
20260430T12Z_MSC_GDPS_SpecificHumidity_IsbL-0100_LatLon0.15_PT045H.grib2 2026-04-30 16:04 1.4M
20260430T12Z_MSC_GDPS_SpecificHumidity_IsbL-0150_LatLon0.15_PT045H.grib2 2026-04-30 16:04 1.3M
20260430T12Z_MSC_GDPS_SpecificHumidity_IsbL-0175_LatLon0.15_PT045H.grib2 2026-04-30 16:04 1.2M
20260430T12Z_MSC_GDPS_SpecificHumidity_IsbL-0200_LatLon0.15_PT045H.grib2 2026-04-30 16:04 1.3M
20260430T12Z_MSC_GDPS_SpecificHumidity_IsbL-0225_LatLon0.15_PT045H.grib2 2026-04-30 16:04 1.3M
20260430T12Z_MSC_GDPS_SpecificHumidity_IsbL-0250_LatLon0.15_PT045H.grib2 2026-04-30 16:04 1.4M
20260430T12Z_MSC_GDPS_SpecificHumidity_IsbL-0275_LatLon0.15_PT045H.grib2 2026-04-30 16:04 1.3M
20260430T12Z_MSC_GDPS_SpecificHumidity_IsbL-0300_LatLon0.15_PT045H.grib2 2026-04-30 16:04 1.2M
20260430T12Z_MSC_GDPS_SpecificHumidity_IsbL-0350_LatLon0.15_PT045H.grib2 2026-04-30 16:04 1.5M
20260430T12Z_MSC_GDPS_SpecificHumidity_IsbL-0400_LatLon0.15_PT045H.grib2 2026-04-30 16:04 1.4M
20260430T12Z_MSC_GDPS_SpecificHumidity_IsbL-0450_LatLon0.15_PT045H.grib2 2026-04-30 16:04 1.6M
20260430T12Z_MSC_GDPS_SpecificHumidity_IsbL-0500_LatLon0.15_PT045H.grib2 2026-04-30 16:04 1.4M
20260430T12Z_MSC_GDPS_SpecificHumidity_IsbL-0550_LatLon0.15_PT045H.grib2 2026-04-30 16:04 1.6M
20260430T12Z_MSC_GDPS_SpecificHumidity_IsbL-0600_LatLon0.15_PT045H.grib2 2026-04-30 16:04 1.7M
20260430T12Z_MSC_GDPS_SpecificHumidity_IsbL-0650_LatLon0.15_PT045H.grib2 2026-04-30 16:04 1.5M
20260430T12Z_MSC_GDPS_SpecificHumidity_IsbL-0700_LatLon0.15_PT045H.grib2 2026-04-30 16:04 1.6M
20260430T12Z_MSC_GDPS_SpecificHumidity_IsbL-0750_LatLon0.15_PT045H.grib2 2026-04-30 16:04 1.7M
20260430T12Z_MSC_GDPS_SpecificHumidity_IsbL-0800_LatLon0.15_PT045H.grib2 2026-04-30 16:04 1.9M
20260430T12Z_MSC_GDPS_SpecificHumidity_IsbL-0850_LatLon0.15_PT045H.grib2 2026-04-30 16:04 1.9M
20260430T12Z_MSC_GDPS_SpecificHumidity_IsbL-0875_LatLon0.15_PT045H.grib2 2026-04-30 16:04 1.9M
20260430T12Z_MSC_GDPS_SpecificHumidity_IsbL-0900_LatLon0.15_PT045H.grib2 2026-04-30 16:04 1.9M
20260430T12Z_MSC_GDPS_SpecificHumidity_IsbL-0925_LatLon0.15_PT045H.grib2 2026-04-30 16:04 1.6M
20260430T12Z_MSC_GDPS_SpecificHumidity_IsbL-0950_LatLon0.15_PT045H.grib2 2026-04-30 16:04 1.6M
20260430T12Z_MSC_GDPS_SpecificHumidity_IsbL-0970_LatLon0.15_PT045H.grib2 2026-04-30 16:04 1.5M
20260430T12Z_MSC_GDPS_SpecificHumidity_IsbL-0985_LatLon0.15_PT045H.grib2 2026-04-30 16:04 1.5M
20260430T12Z_MSC_GDPS_SpecificHumidity_IsbL-1000_LatLon0.15_PT045H.grib2 2026-04-30 16:04 1.5M
20260430T12Z_MSC_GDPS_SpecificHumidity_IsbL-1015_LatLon0.15_PT045H.grib2 2026-04-30 16:04 1.5M
20260430T12Z_MSC_GDPS_SpecificHumidity_Sfc_LatLon0.15_PT045H.grib2 2026-04-30 16:04 593K
20260430T12Z_MSC_GDPS_Thickness_IsbL-0850to0700_LatLon0.15_PT045H.grib2 2026-04-30 16:04 467K
20260430T12Z_MSC_GDPS_Thickness_IsbL-1000to0500_LatLon0.15_PT045H.grib2 2026-04-30 16:04 373K
20260430T12Z_MSC_GDPS_Thickness_IsbL-1000to0850_LatLon0.15_PT045H.grib2 2026-04-30 16:04 492K
20260430T12Z_MSC_GDPS_TotalCloudCover_Sfc_LatLon0.15_PT045H.grib2 2026-04-30 16:04 831K
20260430T12Z_MSC_GDPS_TotalTotalsIndex_Sfc_LatLon0.15_PT045H.grib2 2026-04-30 16:04 6.1M
20260430T12Z_MSC_GDPS_UVIndex-ClearSky_Sfc_LatLon0.15_PT045H.grib2 2026-04-30 16:44 1.1M
20260430T12Z_MSC_GDPS_UVIndex_Sfc_LatLon0.15_PT045H.grib2 2026-04-30 16:44 1.5M
20260430T12Z_MSC_GDPS_UpwardLongwaveRadiationFlux_NTAtm_LatLon0.15_PT045H.grib2 2026-04-30 16:04 842K
20260430T12Z_MSC_GDPS_VerticalVelocity_IsbL-0200_LatLon0.15_PT045H.grib2 2026-04-30 16:04 1.1M
20260430T12Z_MSC_GDPS_VerticalVelocity_IsbL-0250_LatLon0.15_PT045H.grib2 2026-04-30 16:04 1.0M
20260430T12Z_MSC_GDPS_VerticalVelocity_IsbL-0500_LatLon0.15_PT045H.grib2 2026-04-30 16:04 1.0M
20260430T12Z_MSC_GDPS_VerticalVelocity_IsbL-0600_LatLon0.15_PT045H.grib2 2026-04-30 16:04 1.1M
20260430T12Z_MSC_GDPS_VerticalVelocity_IsbL-0700_LatLon0.15_PT045H.grib2 2026-04-30 16:04 1.2M
20260430T12Z_MSC_GDPS_VerticalVelocity_IsbL-0850_LatLon0.15_PT045H.grib2 2026-04-30 16:04 1.0M
20260430T12Z_MSC_GDPS_WindChill_Sfc_LatLon0.15_PT045H.grib2 2026-04-30 16:04 5.3M
20260430T12Z_MSC_GDPS_WindDir_AGL-10m_LatLon0.15_PT045H.grib2 2026-04-30 16:04 1.3M
20260430T12Z_MSC_GDPS_WindDir_AGL-120m_LatLon0.15_PT045H.grib2 2026-04-30 16:04 1.3M
20260430T12Z_MSC_GDPS_WindDir_AGL-40m_LatLon0.15_PT045H.grib2 2026-04-30 16:04 1.4M
20260430T12Z_MSC_GDPS_WindDir_AGL-80m_LatLon0.15_PT045H.grib2 2026-04-30 16:04 1.3M
20260430T12Z_MSC_GDPS_WindDir_IsbL-0001_LatLon0.15_PT045H.grib2 2026-04-30 16:04 681K
20260430T12Z_MSC_GDPS_WindDir_IsbL-0005_LatLon0.15_PT045H.grib2 2026-04-30 16:04 796K
20260430T12Z_MSC_GDPS_WindDir_IsbL-0010_LatLon0.15_PT045H.grib2 2026-04-30 16:04 855K
20260430T12Z_MSC_GDPS_WindDir_IsbL-0020_LatLon0.15_PT045H.grib2 2026-04-30 16:04 962K
20260430T12Z_MSC_GDPS_WindDir_IsbL-0030_LatLon0.15_PT045H.grib2 2026-04-30 16:04 929K
20260430T12Z_MSC_GDPS_WindDir_IsbL-0050_LatLon0.15_PT045H.grib2 2026-04-30 16:04 945K
20260430T12Z_MSC_GDPS_WindDir_IsbL-0100_LatLon0.15_PT045H.grib2 2026-04-30 16:04 1.0M
20260430T12Z_MSC_GDPS_WindDir_IsbL-0150_LatLon0.15_PT045H.grib2 2026-04-30 16:04 1.0M
20260430T12Z_MSC_GDPS_WindDir_IsbL-0175_LatLon0.15_PT045H.grib2 2026-04-30 16:04 1.0M
20260430T12Z_MSC_GDPS_WindDir_IsbL-0200_LatLon0.15_PT045H.grib2 2026-04-30 16:04 1.1M
20260430T12Z_MSC_GDPS_WindDir_IsbL-0225_LatLon0.15_PT045H.grib2 2026-04-30 16:04 1.1M
20260430T12Z_MSC_GDPS_WindDir_IsbL-0250_LatLon0.15_PT045H.grib2 2026-04-30 16:04 1.1M
20260430T12Z_MSC_GDPS_WindDir_IsbL-0275_LatLon0.15_PT045H.grib2 2026-04-30 16:04 1.2M
20260430T12Z_MSC_GDPS_WindDir_IsbL-0300_LatLon0.15_PT045H.grib2 2026-04-30 16:04 1.2M
20260430T12Z_MSC_GDPS_WindDir_IsbL-0350_LatLon0.15_PT045H.grib2 2026-04-30 16:04 1.2M
20260430T12Z_MSC_GDPS_WindDir_IsbL-0400_LatLon0.15_PT045H.grib2 2026-04-30 16:04 1.3M
20260430T12Z_MSC_GDPS_WindDir_IsbL-0450_LatLon0.15_PT045H.grib2 2026-04-30 16:04 1.3M
20260430T12Z_MSC_GDPS_WindDir_IsbL-0500_LatLon0.15_PT045H.grib2 2026-04-30 16:04 1.3M
20260430T12Z_MSC_GDPS_WindDir_IsbL-0550_LatLon0.15_PT045H.grib2 2026-04-30 16:04 1.4M
20260430T12Z_MSC_GDPS_WindDir_IsbL-0600_LatLon0.15_PT045H.grib2 2026-04-30 16:04 1.4M
20260430T12Z_MSC_GDPS_WindDir_IsbL-0650_LatLon0.15_PT045H.grib2 2026-04-30 16:04 1.5M
20260430T12Z_MSC_GDPS_WindDir_IsbL-0700_LatLon0.15_PT045H.grib2 2026-04-30 16:04 1.6M
20260430T12Z_MSC_GDPS_WindDir_IsbL-0750_LatLon0.15_PT045H.grib2 2026-04-30 16:04 1.7M
20260430T12Z_MSC_GDPS_WindDir_IsbL-0800_LatLon0.15_PT045H.grib2 2026-04-30 16:04 1.8M
20260430T12Z_MSC_GDPS_WindDir_IsbL-0850_LatLon0.15_PT045H.grib2 2026-04-30 16:04 1.9M
20260430T12Z_MSC_GDPS_WindDir_IsbL-0875_LatLon0.15_PT045H.grib2 2026-04-30 16:04 1.9M
20260430T12Z_MSC_GDPS_WindDir_IsbL-0900_LatLon0.15_PT045H.grib2 2026-04-30 16:04 2.0M
20260430T12Z_MSC_GDPS_WindDir_IsbL-0925_LatLon0.15_PT045H.grib2 2026-04-30 16:04 2.0M
20260430T12Z_MSC_GDPS_WindDir_IsbL-0950_LatLon0.15_PT045H.grib2 2026-04-30 16:04 1.9M
20260430T12Z_MSC_GDPS_WindDir_IsbL-0970_LatLon0.15_PT045H.grib2 2026-04-30 16:04 2.0M
20260430T12Z_MSC_GDPS_WindDir_IsbL-0985_LatLon0.15_PT045H.grib2 2026-04-30 16:04 2.0M
20260430T12Z_MSC_GDPS_WindDir_IsbL-1000_LatLon0.15_PT045H.grib2 2026-04-30 16:04 2.0M
20260430T12Z_MSC_GDPS_WindDir_IsbL-1015_LatLon0.15_PT045H.grib2 2026-04-30 16:04 2.0M
20260430T12Z_MSC_GDPS_WindGust-Max_AGL-10m_LatLon0.15_PT045H.grib2 2026-04-30 16:04 2.2M
20260430T12Z_MSC_GDPS_WindGust-Min_AGL-10m_LatLon0.15_PT045H.grib2 2026-04-30 16:04 2.1M
20260430T12Z_MSC_GDPS_WindGust_AGL-10m_LatLon0.15_PT045H.grib2 2026-04-30 16:04 2.1M
20260430T12Z_MSC_GDPS_WindSpeed_AGL-10m_LatLon0.15_PT045H.grib2 2026-04-30 16:04 1.1M
20260430T12Z_MSC_GDPS_WindSpeed_AGL-120m_LatLon0.15_PT045H.grib2 2026-04-30 16:04 1.2M
20260430T12Z_MSC_GDPS_WindSpeed_AGL-40m_LatLon0.15_PT045H.grib2 2026-04-30 16:04 1.2M
20260430T12Z_MSC_GDPS_WindSpeed_AGL-80m_LatLon0.15_PT045H.grib2 2026-04-30 16:04 1.2M
20260430T12Z_MSC_GDPS_WindSpeed_IsbL-0001_LatLon0.15_PT045H.grib2 2026-04-30 16:04 641K
20260430T12Z_MSC_GDPS_WindSpeed_IsbL-0005_LatLon0.15_PT045H.grib2 2026-04-30 16:04 693K
20260430T12Z_MSC_GDPS_WindSpeed_IsbL-0010_LatLon0.15_PT045H.grib2 2026-04-30 16:04 628K
20260430T12Z_MSC_GDPS_WindSpeed_IsbL-0020_LatLon0.15_PT045H.grib2 2026-04-30 16:04 667K
20260430T12Z_MSC_GDPS_WindSpeed_IsbL-0030_LatLon0.15_PT045H.grib2 2026-04-30 16:04 862K
20260430T12Z_MSC_GDPS_WindSpeed_IsbL-0050_LatLon0.15_PT045H.grib2 2026-04-30 16:04 902K
20260430T12Z_MSC_GDPS_WindSpeed_IsbL-0100_LatLon0.15_PT045H.grib2 2026-04-30 16:04 1.1M
20260430T12Z_MSC_GDPS_WindSpeed_IsbL-0150_LatLon0.15_PT045H.grib2 2026-04-30 16:04 1.0M
20260430T12Z_MSC_GDPS_WindSpeed_IsbL-0175_LatLon0.15_PT045H.grib2 2026-04-30 16:04 1.0M
20260430T12Z_MSC_GDPS_WindSpeed_IsbL-0200_LatLon0.15_PT045H.grib2 2026-04-30 16:04 1.1M
20260430T12Z_MSC_GDPS_WindSpeed_IsbL-0225_LatLon0.15_PT045H.grib2 2026-04-30 16:04 1.1M
20260430T12Z_MSC_GDPS_WindSpeed_IsbL-0250_LatLon0.15_PT045H.grib2 2026-04-30 16:04 1.1M
20260430T12Z_MSC_GDPS_WindSpeed_IsbL-0275_LatLon0.15_PT045H.grib2 2026-04-30 16:04 1.1M
20260430T12Z_MSC_GDPS_WindSpeed_IsbL-0300_LatLon0.15_PT045H.grib2 2026-04-30 16:04 1.1M
20260430T12Z_MSC_GDPS_WindSpeed_IsbL-0350_LatLon0.15_PT045H.grib2 2026-04-30 16:04 1.1M
20260430T12Z_MSC_GDPS_WindSpeed_IsbL-0400_LatLon0.15_PT045H.grib2 2026-04-30 16:04 1.1M
20260430T12Z_MSC_GDPS_WindSpeed_IsbL-0450_LatLon0.15_PT045H.grib2 2026-04-30 16:04 1.1M
20260430T12Z_MSC_GDPS_WindSpeed_IsbL-0500_LatLon0.15_PT045H.grib2 2026-04-30 16:04 1.1M
20260430T12Z_MSC_GDPS_WindSpeed_IsbL-0550_LatLon0.15_PT045H.grib2 2026-04-30 16:04 1.1M
20260430T12Z_MSC_GDPS_WindSpeed_IsbL-0600_LatLon0.15_PT045H.grib2 2026-04-30 16:04 1.4M
20260430T12Z_MSC_GDPS_WindSpeed_IsbL-0650_LatLon0.15_PT045H.grib2 2026-04-30 16:04 1.4M
20260430T12Z_MSC_GDPS_WindSpeed_IsbL-0700_LatLon0.15_PT045H.grib2 2026-04-30 16:04 1.5M
20260430T12Z_MSC_GDPS_WindSpeed_IsbL-0750_LatLon0.15_PT045H.grib2 2026-04-30 16:04 1.6M
20260430T12Z_MSC_GDPS_WindSpeed_IsbL-0800_LatLon0.15_PT045H.grib2 2026-04-30 16:04 1.7M
20260430T12Z_MSC_GDPS_WindSpeed_IsbL-0850_LatLon0.15_PT045H.grib2 2026-04-30 16:04 1.8M
20260430T12Z_MSC_GDPS_WindSpeed_IsbL-0875_LatLon0.15_PT045H.grib2 2026-04-30 16:04 1.8M
20260430T12Z_MSC_GDPS_WindSpeed_IsbL-0900_LatLon0.15_PT045H.grib2 2026-04-30 16:04 1.8M
20260430T12Z_MSC_GDPS_WindSpeed_IsbL-0925_LatLon0.15_PT045H.grib2 2026-04-30 16:04 1.8M
20260430T12Z_MSC_GDPS_WindSpeed_IsbL-0950_LatLon0.15_PT045H.grib2 2026-04-30 16:04 1.8M
20260430T12Z_MSC_GDPS_WindSpeed_IsbL-0970_LatLon0.15_PT045H.grib2 2026-04-30 16:04 1.8M
20260430T12Z_MSC_GDPS_WindSpeed_IsbL-0985_LatLon0.15_PT045H.grib2 2026-04-30 16:04 1.9M
20260430T12Z_MSC_GDPS_WindSpeed_IsbL-1000_LatLon0.15_PT045H.grib2 2026-04-30 16:04 1.9M
20260430T12Z_MSC_GDPS_WindSpeed_IsbL-1015_LatLon0.15_PT045H.grib2 2026-04-30 16:04 1.8M
20260430T12Z_MSC_GDPS_WindU_AGL-10m_LatLon0.15_PT045H.grib2 2026-04-30 16:04 1.3M
20260430T12Z_MSC_GDPS_WindU_AGL-120m_LatLon0.15_PT045H.grib2 2026-04-30 16:04 1.0M
20260430T12Z_MSC_GDPS_WindU_AGL-40m_LatLon0.15_PT045H.grib2 2026-04-30 16:04 1.0M
20260430T12Z_MSC_GDPS_WindU_AGL-80m_LatLon0.15_PT045H.grib2 2026-04-30 16:04 1.0M
20260430T12Z_MSC_GDPS_WindU_IsbL-0001_LatLon0.15_PT045H.grib2 2026-04-30 16:04 500K
20260430T12Z_MSC_GDPS_WindU_IsbL-0005_LatLon0.15_PT045H.grib2 2026-04-30 16:04 692K
20260430T12Z_MSC_GDPS_WindU_IsbL-0010_LatLon0.15_PT045H.grib2 2026-04-30 16:04 701K
20260430T12Z_MSC_GDPS_WindU_IsbL-0020_LatLon0.15_PT045H.grib2 2026-04-30 16:04 733K
20260430T12Z_MSC_GDPS_WindU_IsbL-0030_LatLon0.15_PT045H.grib2 2026-04-30 16:04 738K
20260430T12Z_MSC_GDPS_WindU_IsbL-0050_LatLon0.15_PT045H.grib2 2026-04-30 16:04 766K
20260430T12Z_MSC_GDPS_WindU_IsbL-0100_LatLon0.15_PT045H.grib2 2026-04-30 16:04 921K
20260430T12Z_MSC_GDPS_WindU_IsbL-0150_LatLon0.15_PT045H.grib2 2026-04-30 16:04 1.0M
20260430T12Z_MSC_GDPS_WindU_IsbL-0175_LatLon0.15_PT045H.grib2 2026-04-30 16:04 813K
20260430T12Z_MSC_GDPS_WindU_IsbL-0200_LatLon0.15_PT045H.grib2 2026-04-30 16:04 842K
20260430T12Z_MSC_GDPS_WindU_IsbL-0225_LatLon0.15_PT045H.grib2 2026-04-30 16:04 852K
20260430T12Z_MSC_GDPS_WindU_IsbL-0250_LatLon0.15_PT045H.grib2 2026-04-30 16:04 1.1M
20260430T12Z_MSC_GDPS_WindU_IsbL-0275_LatLon0.15_PT045H.grib2 2026-04-30 16:04 881K
20260430T12Z_MSC_GDPS_WindU_IsbL-0300_LatLon0.15_PT045H.grib2 2026-04-30 16:04 872K
20260430T12Z_MSC_GDPS_WindU_IsbL-0350_LatLon0.15_PT045H.grib2 2026-04-30 16:04 884K
20260430T12Z_MSC_GDPS_WindU_IsbL-0400_LatLon0.15_PT045H.grib2 2026-04-30 16:04 1.1M
20260430T12Z_MSC_GDPS_WindU_IsbL-0450_LatLon0.15_PT045H.grib2 2026-04-30 16:04 1.1M
20260430T12Z_MSC_GDPS_WindU_IsbL-0500_LatLon0.15_PT045H.grib2 2026-04-30 16:04 1.1M
20260430T12Z_MSC_GDPS_WindU_IsbL-0550_LatLon0.15_PT045H.grib2 2026-04-30 16:04 1.1M
20260430T12Z_MSC_GDPS_WindU_IsbL-0600_LatLon0.15_PT045H.grib2 2026-04-30 16:04 1.1M
20260430T12Z_MSC_GDPS_WindU_IsbL-0650_LatLon0.15_PT045H.grib2 2026-04-30 16:04 1.2M
20260430T12Z_MSC_GDPS_WindU_IsbL-0700_LatLon0.15_PT045H.grib2 2026-04-30 16:04 1.2M
20260430T12Z_MSC_GDPS_WindU_IsbL-0750_LatLon0.15_PT045H.grib2 2026-04-30 16:04 1.3M
20260430T12Z_MSC_GDPS_WindU_IsbL-0800_LatLon0.15_PT045H.grib2 2026-04-30 16:04 1.4M
20260430T12Z_MSC_GDPS_WindU_IsbL-0850_LatLon0.15_PT045H.grib2 2026-04-30 16:04 1.4M
20260430T12Z_MSC_GDPS_WindU_IsbL-0875_LatLon0.15_PT045H.grib2 2026-04-30 16:04 1.5M
20260430T12Z_MSC_GDPS_WindU_IsbL-0900_LatLon0.15_PT045H.grib2 2026-04-30 16:04 1.5M
20260430T12Z_MSC_GDPS_WindU_IsbL-0925_LatLon0.15_PT045H.grib2 2026-04-30 16:04 1.5M
20260430T12Z_MSC_GDPS_WindU_IsbL-0950_LatLon0.15_PT045H.grib2 2026-04-30 16:04 1.4M
20260430T12Z_MSC_GDPS_WindU_IsbL-0970_LatLon0.15_PT045H.grib2 2026-04-30 16:04 1.4M
20260430T12Z_MSC_GDPS_WindU_IsbL-0985_LatLon0.15_PT045H.grib2 2026-04-30 16:04 1.4M
20260430T12Z_MSC_GDPS_WindU_IsbL-1000_LatLon0.15_PT045H.grib2 2026-04-30 16:04 1.4M
20260430T12Z_MSC_GDPS_WindU_IsbL-1015_LatLon0.15_PT045H.grib2 2026-04-30 16:04 1.4M
20260430T12Z_MSC_GDPS_WindV_AGL-10m_LatLon0.15_PT045H.grib2 2026-04-30 16:04 1.3M
20260430T12Z_MSC_GDPS_WindV_AGL-120m_LatLon0.15_PT045H.grib2 2026-04-30 16:04 1.0M
20260430T12Z_MSC_GDPS_WindV_AGL-40m_LatLon0.15_PT045H.grib2 2026-04-30 16:04 1.0M
20260430T12Z_MSC_GDPS_WindV_AGL-80m_LatLon0.15_PT045H.grib2 2026-04-30 16:04 1.0M
20260430T12Z_MSC_GDPS_WindV_IsbL-0001_LatLon0.15_PT045H.grib2 2026-04-30 16:04 711K
20260430T12Z_MSC_GDPS_WindV_IsbL-0005_LatLon0.15_PT045H.grib2 2026-04-30 16:04 765K
20260430T12Z_MSC_GDPS_WindV_IsbL-0010_LatLon0.15_PT045H.grib2 2026-04-30 16:04 794K
20260430T12Z_MSC_GDPS_WindV_IsbL-0020_LatLon0.15_PT045H.grib2 2026-04-30 16:04 850K
20260430T12Z_MSC_GDPS_WindV_IsbL-0030_LatLon0.15_PT045H.grib2 2026-04-30 16:04 852K
20260430T12Z_MSC_GDPS_WindV_IsbL-0050_LatLon0.15_PT045H.grib2 2026-04-30 16:04 902K
20260430T12Z_MSC_GDPS_WindV_IsbL-0100_LatLon0.15_PT045H.grib2 2026-04-30 16:04 1.1M
20260430T12Z_MSC_GDPS_WindV_IsbL-0150_LatLon0.15_PT045H.grib2 2026-04-30 16:04 1.0M
20260430T12Z_MSC_GDPS_WindV_IsbL-0175_LatLon0.15_PT045H.grib2 2026-04-30 16:04 1.0M
20260430T12Z_MSC_GDPS_WindV_IsbL-0200_LatLon0.15_PT045H.grib2 2026-04-30 16:04 839K
20260430T12Z_MSC_GDPS_WindV_IsbL-0225_LatLon0.15_PT045H.grib2 2026-04-30 16:04 847K
20260430T12Z_MSC_GDPS_WindV_IsbL-0250_LatLon0.15_PT045H.grib2 2026-04-30 16:04 905K
20260430T12Z_MSC_GDPS_WindV_IsbL-0275_LatLon0.15_PT045H.grib2 2026-04-30 16:04 873K
20260430T12Z_MSC_GDPS_WindV_IsbL-0300_LatLon0.15_PT045H.grib2 2026-04-30 16:04 861K
20260430T12Z_MSC_GDPS_WindV_IsbL-0350_LatLon0.15_PT045H.grib2 2026-04-30 16:04 875K
20260430T12Z_MSC_GDPS_WindV_IsbL-0400_LatLon0.15_PT045H.grib2 2026-04-30 16:04 877K
20260430T12Z_MSC_GDPS_WindV_IsbL-0450_LatLon0.15_PT045H.grib2 2026-04-30 16:04 877K
20260430T12Z_MSC_GDPS_WindV_IsbL-0500_LatLon0.15_PT045H.grib2 2026-04-30 16:04 1.1M
20260430T12Z_MSC_GDPS_WindV_IsbL-0550_LatLon0.15_PT045H.grib2 2026-04-30 16:04 1.1M
20260430T12Z_MSC_GDPS_WindV_IsbL-0600_LatLon0.15_PT045H.grib2 2026-04-30 16:04 1.1M
20260430T12Z_MSC_GDPS_WindV_IsbL-0650_LatLon0.15_PT045H.grib2 2026-04-30 16:04 1.2M
20260430T12Z_MSC_GDPS_WindV_IsbL-0700_LatLon0.15_PT045H.grib2 2026-04-30 16:04 1.2M
20260430T12Z_MSC_GDPS_WindV_IsbL-0750_LatLon0.15_PT045H.grib2 2026-04-30 16:04 1.3M
20260430T12Z_MSC_GDPS_WindV_IsbL-0800_LatLon0.15_PT045H.grib2 2026-04-30 16:04 1.3M
20260430T12Z_MSC_GDPS_WindV_IsbL-0850_LatLon0.15_PT045H.grib2 2026-04-30 16:04 1.4M
20260430T12Z_MSC_GDPS_WindV_IsbL-0875_LatLon0.15_PT045H.grib2 2026-04-30 16:04 1.4M
20260430T12Z_MSC_GDPS_WindV_IsbL-0900_LatLon0.15_PT045H.grib2 2026-04-30 16:04 1.5M
20260430T12Z_MSC_GDPS_WindV_IsbL-0925_LatLon0.15_PT045H.grib2 2026-04-30 16:04 1.4M
20260430T12Z_MSC_GDPS_WindV_IsbL-0950_LatLon0.15_PT045H.grib2 2026-04-30 16:04 1.4M
20260430T12Z_MSC_GDPS_WindV_IsbL-0970_LatLon0.15_PT045H.grib2 2026-04-30 16:04 1.4M
20260430T12Z_MSC_GDPS_WindV_IsbL-0985_LatLon0.15_PT045H.grib2 2026-04-30 16:04 1.4M
20260430T12Z_MSC_GDPS_WindV_IsbL-1000_LatLon0.15_PT045H.grib2 2026-04-30 16:04 1.4M
20260430T12Z_MSC_GDPS_WindV_IsbL-1015_LatLon0.15_PT045H.grib2 2026-04-30 16:04 1.3M